Location: Helsinki
(60.1699°N, 24.9384°E)
Time: 15:34:38
(UTC+02:00)

Tiros 1 - Pass Details

Date: 03 October 2022
Orbit: 629 x 662 km, 48.4° (Epoch: 07 December)

Event Time Altitude Azimuth Distance (km) Brightness Sun altitude
Rises 04:34:08 0° 254° (WSW) 2,987 - -21.7°
Reaches altitude 10° 04:37:08 10° 235° (SW) 2,069 - -21.4°
Maximum altitude 04:40:17 18° 193° (SSW) 1,608 - -21.1°
Exits shadow 04:42:02 15° 167° (SSE) 1,756 9.2 -20.9°
Drops below altitude 10° 04:43:25 10° 152° (SSE) 2,053 9.7 -20.7°
Sets 04:46:23 0° 133° (SE) 2,955 10.8 -20.4°
